Hauptseite
METAR-TAF:

METAR-TAF

Flughäfen :

Turin, Italien

Flugplatz Turin-Aeritalia

Breite: 45-05-20N, Länge: 007-36-20E, Höhe: 288 m

Beobachtung

Neuester Wetterbericht von vor 6 Stunden und 23 Minuten, um 16:50 UTC
Wind 5 kt aus Süd/Südwest, variierte zwischen Süd und Südwest
Temperatur 26°C
Luftfeuchtigkeit 26%
Luftdruck 1017 hPa
Sichtweite 10 km oder mehr
keine Wolken unter 1500 m und keine Kumulonimbus oder Gewitterwolken

METAR: LIMA 211650Z 20005KT 170V230 CAVOK 26/05 Q1017

Zeit: 01:13 (23:13 UTC)


TAF: fehlend

Wetterbeobachtungen und Prognosen von mehr als 4000 Flughäfen (METAR und TAF Bericht).

Die verfügbaren Stationen werden durch gelbe und rote Markierungen auf der Karte dargestellt.

Führen Sie die Maus auf sie, um den Namen der Station zu sehen.

Darauf klicken, um die Beobachtung von Wetterbeobachtungen und Prognosen zu sehen.

Um die Karte zu ändern : klicken Sie auf den grünen Tasten mit einem schwarzen Kreuz Zum Vergrößern, auf den grünen Button mit einem Gedankenstrich zu verkleinern, oder auf die grünen Pfeile für benachbarte Karten.


METAR-TAF: